Volver al catálogo

DELTA 1 DEB

ActivoSSO
NORAD 9570·DEBRIS·🇺🇸 United States

Lanzado Nov 6, 1973 desde Vandenberg Space Force Base

Loading…

Próximos Pases (próximas 24 horas)

TLE

ActualizadoSource: Space-Track

Época: Sep 14, 2026, 13:53 UTC

1 09570U 73086FX  26257.57858032 -.00000029  00000-0  10528-3 0  9996
2 09570 101.7481 195.6092 0067427 210.2014 326.3769 12.41297282388961

Sigue DELTA 1 DEB en tiempo real con AllMySat

Download on the App Store